Thailine 5 — 9WFF5 — position and weather

sailwx.info

Track history (hours):
 
Tides and Currents Weather Stations Pressure Air Temp Water Temp Dewpoint Dewpoint Depression Visibility Wind Speed Wind Dir Waves Ship Positions

Thailine 5

Last reported at 2014-Jul-23 19:21 UTC. Time now 2014-Jul-23 20:10 UTC.
Position N 30°30' E 122°14'.

Length 98 m; draft 4.7 m.

Type: Cargo ship. MMSI: 533399000.

Date/timePositionNaut miles runAvg speedWind from/ knotsBaromVisibWave heightAir tempDewpointWater temp
2014-Jul-23 19:21N 30°30' E 122°14'0 0.0
2014-Jul-23 18:33N 30°30' E 122°14'0 0.0
2014-Jul-23 15:33N 30°30' E 122°14'0 0.1
2014-Jul-23 14:33N 30°30' E 122°13'0 0.0
2014-Jul-23 13:27N 30°30' E 122°13'0 0.0
2014-Jul-23 11:33N 30°30' E 122°13'0 0.0
2014-Jul-23 10:27N 30°30' E 122°13'0 0.1
2014-Jul-23 09:09N 30°30' E 122°13'0 0.0
2014-Jul-23 08:27N 30°30' E 122°13'0 0.1
2014-Jul-23 07:21N 30°30' E 122°14'0 0.1
2014-Jul-23 06:09N 30°30' E 122°14'0 0.0
2014-Jul-23 05:27N 30°30' E 122°14'0 0.1
2014-Jul-23 04:33N 30°30' E 122°14'5 5.2
2014-Jul-23 03:33N 30°34' E 122°12'10 9.8
2014-Jul-23 02:34N 30°44' E 122°16'1010.1
2014-Jul-23 01:33N 30°52' E 122°23'1110.4
2014-Jul-23 00:30N 30°56' E 122°34'7 1.7
2014-Jul-22 20:33N 31°02' E 122°38'0 0.0
2014-Jul-21 00:33N 31°02' E 122°38'0 0.0
2014-Jul-20 20:31N 31°02' E 122°38'20 9.5
2014-Jul-20 18:23N 30°57' E 123°00'1112.6
2014-Jul-20 17:32N 30°51' E 123°11'2412.1
2014-Jul-20 15:31N 30°28' E 123°20'2712.4
2014-Jul-20 13:22N 30°02' E 123°20'2812.4
2014-Jul-20 11:05N 29°34' E 123°14'1212.4
2014-Jul-20 10:08N 29°22' E 123°12'  
Track history (hours):
 
Tides and Currents Weather Stations Pressure Air Temp Water Temp Dewpoint Dewpoint Depression Visibility Wind Speed Wind Dir Waves Ship Positions

Thailine 5

Last reported at 2014-Jul-23 19:21 UTC. Time now 2014-Jul-23 20:10 UTC.
Position N 30°30' E 122°14'.

Length 98 m; draft 4.7 m.

Type: Cargo ship. MMSI: 533399000.

Date/timePositionNaut miles runAvg speedWind from/ knotsBaromVisibWave heightAir tempDewpointWater temp
2014-Jul-23 19:21N 30°30' E 122°14'0 0.0
2014-Jul-23 18:33N 30°30' E 122°14'0 0.0
2014-Jul-23 15:33N 30°30' E 122°14'0 0.1
2014-Jul-23 14:33N 30°30' E 122°13'0 0.0
2014-Jul-23 13:27N 30°30' E 122°13'0 0.0
2014-Jul-23 11:33N 30°30' E 122°13'0 0.0
2014-Jul-23 10:27N 30°30' E 122°13'0 0.1
2014-Jul-23 09:09N 30°30' E 122°13'0 0.0
2014-Jul-23 08:27N 30°30' E 122°13'0 0.1
2014-Jul-23 07:21N 30°30' E 122°14'0 0.1
2014-Jul-23 06:09N 30°30' E 122°14'0 0.0
2014-Jul-23 05:27N 30°30' E 122°14'0 0.1
2014-Jul-23 04:33N 30°30' E 122°14'5 5.2
2014-Jul-23 03:33N 30°34' E 122°12'10 9.8
2014-Jul-23 02:34N 30°44' E 122°16'1010.1
2014-Jul-23 01:33N 30°52' E 122°23'1110.4
2014-Jul-23 00:30N 30°56' E 122°34'7 1.7
2014-Jul-22 20:33N 31°02' E 122°38'0 0.0
2014-Jul-21 00:33N 31°02' E 122°38'0 0.0
2014-Jul-20 20:31N 31°02' E 122°38'20 9.5
2014-Jul-20 18:23N 30°57' E 123°00'1112.6
2014-Jul-20 17:32N 30°51' E 123°11'2412.1
2014-Jul-20 15:31N 30°28' E 123°20'2712.4
2014-Jul-20 13:22N 30°02' E 123°20'2812.4
2014-Jul-20 11:05N 29°34' E 123°14'1212.4
2014-Jul-20 10:08N 29°22' E 123°12'  

Dump ship's entire track history